TimeEDT,TemperatureF,Dew PointF,Humidity,Sea Level PressureIn,VisibilityMPH,Wind Direction,Wind SpeedMPH,Gust SpeedMPH,PrecipitationIn,Events,Conditions,WindDirDegrees,DateUTC
12:30 AM,44.6,39.2,81,29.54,10.0,WSW,10.4,-,N/A,,Overcast,240,2012-10-22 04:30:00
12:44 AM,44.6,39.2,81,29.54,10.0,WSW,8.1,-,N/A,,Overcast,240,2012-10-22 04:44:00
12:53 AM,45.0,39.9,82,29.55,10.0,WSW,9.2,18.4,N/A,,Overcast,240,2012-10-22 04:53:00
1:51 AM,44.6,39.2,81,29.53,10.0,WSW,15.0,23.0,N/A,,Mostly Cloudy,240,2012-10-22 05:51:00
1:53 AM,44.1,39.0,82,29.54,10.0,WSW,16.1,23.0,N/A,,Scattered Clouds,250,2012-10-22 05:53:00
2:29 AM,44.6,39.2,81,29.53,10.0,WSW,11.5,-,N/A,,Overcast,250,2012-10-22 06:29:00
2:53 AM,45.0,39.0,80,29.53,10.0,WSW,13.8,19.6,N/A,,Overcast,250,2012-10-22 06:53:00
3:53 AM,44.1,39.9,85,29.53,10.0,WSW,10.4,-,0.01,,Overcast,250,2012-10-22 07:53:00
4:00 AM,42.8,39.2,87,29.52,10.0,WSW,10.4,-,N/A,,Overcast,250,2012-10-22 08:00:00
4:37 AM,42.8,41.0,93,29.53,10.0,West,10.4,-,0.00,Rain,Light Rain,260,2012-10-22 08:37:00
4:53 AM,43.0,39.9,89,29.54,10.0,West,11.5,-,0.01,Rain,Light Rain,270,2012-10-22 08:53:00
5:53 AM,43.0,39.9,89,29.55,10.0,West,8.1,-,0.00,,Overcast,260,2012-10-22 09:53:00
6:53 AM,44.1,39.9,85,29.57,10.0,West,11.5,-,N/A,,Overcast,280,2012-10-22 10:53:00
8:04 AM,44.6,39.2,81,29.58,10.0,West,18.4,26.5,N/A,,Overcast,280,2012-10-22 12:04:00
8:53 AM,46.0,39.0,76,29.60,10.0,WNW,26.5,34.5,N/A,,Overcast,290,2012-10-22 12:53:00
9:53 AM,48.2,37.4,66,29.59,10.0,WNW,25.3,42.6,N/A,,Scattered Clouds,290,2012-10-22 13:53:00
10:53 AM,48.0,37.9,68,29.62,10.0,WNW,13.8,32.2,N/A,,Scattered Clouds,300,2012-10-22 14:53:00
11:53 AM,48.0,37.0,66,29.62,10.0,WNW,18.4,28.8,N/A,,Overcast,290,2012-10-22 15:53:00
12:53 PM,51.8,35.6,54,29.61,10.0,WNW,21.9,28.8,N/A,,Overcast,290,2012-10-22 16:53:00
1:53 PM,50.0,32.0,50,29.63,10.0,WNW,20.7,36.8,N/A,,Overcast,300,2012-10-22 17:53:00
2:53 PM,48.0,30.9,52,29.65,10.0,WNW,17.3,26.5,N/A,,Mostly Cloudy,300,2012-10-22 18:53:00
3:53 PM,48.9,30.0,48,29.67,10.0,WNW,23.0,32.2,N/A,,Mostly Cloudy,290,2012-10-22 19:53:00
4:53 PM,46.9,28.9,50,29.70,10.0,WNW,26.5,35.7,N/A,,Overcast,290,2012-10-22 20:53:00
5:53 PM,44.6,28.4,53,29.71,10.0,WNW,16.1,29.9,N/A,,Scattered Clouds,300,2012-10-22 21:53:00
6:53 PM,42.8,28.4,57,29.72,10.0,NW,17.3,23.0,N/A,,Clear,310,2012-10-22 22:53:00
7:53 PM,42.1,28.0,58,29.75,10.0,NW,18.4,32.2,N/A,,Partly Cloudy,310,2012-10-22 23:53:00
8:53 PM,39.2,28.4,65,29.76,10.0,NW,19.6,29.9,N/A,,Clear,310,2012-10-23 00:53:00
9:53 PM,39.9,27.0,60,29.78,10.0,NW,19.6,29.9,N/A,,Overcast,310,2012-10-23 01:53:00
10:53 PM,39.0,27.0,62,29.79,10.0,NW,16.1,31.1,N/A,,Clear,310,2012-10-23 02:53:00
11:53 PM,37.9,28.0,68,29.81,10.0,NW,13.8,25.3,N/A,,Clear,310,2012-10-23 03:53:00